Time,TemperatureF,DewpointF,PressureIn,WindDirection,WindDirectionDegrees,WindSpeedMPH,WindSpeedGustMPH,Humidity,HourlyPrecipIn,Conditions,Clouds,dailyrainin,SolarRadiationWatts/m^2,SoftwareType,DateUTC
2013-10-17 00:13:00,24.0,16.0,-100.00,SW,234,4.0,6.0,71,0.00,,,0.05,0.000000,,2013-10-17 06:13:00,
2013-10-17 00:22:00,24.0,16.0,-100.00,SW,234,4.0,6.0,71,0.00,,,0.05,0.000000,,2013-10-17 06:22:00,
2013-10-17 00:32:00,24.0,16.0,-100.00,SW,234,4.0,6.0,71,0.00,,,0.05,0.000000,,2013-10-17 06:32:00,
2013-10-17 00:42:00,24.0,16.0,-100.00,SW,234,4.0,6.0,71,0.00,,,0.05,0.000000,,2013-10-17 06:42:00,
2013-10-17 01:11:00,25.0,16.0,-100.00,SSW,211,3.0,6.0,67,0.00,,,0.05,0.000000,,2013-10-17 07:11:00,
2013-10-17 01:22:00,25.0,16.0,-100.00,SSW,211,3.0,6.0,67,0.00,,,0.05,0.000000,,2013-10-17 07:22:00,
2013-10-17 01:31:00,25.0,16.0,-100.00,SSW,211,3.0,6.0,67,0.00,,,0.05,0.000000,,2013-10-17 07:31:00,
2013-10-17 01:43:00,25.0,16.0,-100.00,SSW,211,3.0,6.0,67,0.00,,,0.05,0.000000,,2013-10-17 07:43:00,
2013-10-17 02:11:00,23.0,16.0,-100.00,WSW,240,4.0,7.0,73,0.00,,,0.05,0.000000,,2013-10-17 08:11:00,
2013-10-17 02:21:00,23.0,16.0,-100.00,WSW,240,4.0,7.0,73,0.00,,,0.05,0.000000,,2013-10-17 08:21:00,
2013-10-17 02:32:00,23.0,16.0,-100.00,WSW,240,4.0,7.0,73,0.00,,,0.05,0.000000,,2013-10-17 08:32:00,
2013-10-17 02:42:00,23.0,16.0,-100.00,WSW,240,4.0,7.0,73,0.00,,,0.05,0.000000,,2013-10-17 08:42:00,
2013-10-17 03:11:00,23.0,16.0,-100.00,SW,235,4.0,6.0,73,0.00,,,0.05,0.000000,,2013-10-17 09:11:00,
2013-10-17 03:21:00,23.0,16.0,-100.00,SW,235,4.0,6.0,73,0.00,,,0.05,0.000000,,2013-10-17 09:21:00,
2013-10-17 03:33:00,23.0,16.0,-100.00,SW,235,4.0,6.0,73,0.00,,,0.05,0.000000,,2013-10-17 09:33:00,
2013-10-17 03:42:00,23.0,16.0,-100.00,SW,235,4.0,6.0,73,0.00,,,0.05,0.000000,,2013-10-17 09:42:00,
2013-10-17 04:12:00,20.0,15.0,-100.00,WSW,239,5.0,6.0,80,0.00,,,0.05,0.000000,,2013-10-17 10:12:00,
2013-10-17 04:23:00,20.0,15.0,-100.00,WSW,239,5.0,6.0,80,0.00,,,0.05,0.000000,,2013-10-17 10:23:00,
2013-10-17 04:33:00,20.0,15.0,-100.00,WSW,239,5.0,6.0,80,0.00,,,0.05,0.000000,,2013-10-17 10:33:00,
2013-10-17 04:42:00,20.0,15.0,-100.00,WSW,239,5.0,6.0,80,0.00,,,0.05,0.000000,,2013-10-17 10:42:00,
2013-10-17 05:11:00,21.0,14.0,-100.00,ENE,75,0.0,6.0,75,0.00,,,0.05,0.000000,,2013-10-17 11:11:00,
2013-10-17 05:22:00,21.0,14.0,-100.00,ENE,75,0.0,6.0,75,0.00,,,0.05,0.000000,,2013-10-17 11:22:00,
2013-10-17 05:33:00,21.0,14.0,-100.00,ENE,75,0.0,6.0,75,0.00,,,0.05,0.000000,,2013-10-17 11:33:00,
2013-10-17 05:42:00,21.0,14.0,-100.00,ENE,75,0.0,6.0,75,0.00,,,0.05,0.000000,,2013-10-17 11:42:00,
2013-10-17 06:12:00,21.0,14.0,-100.00,North,8,0.0,4.0,74,0.00,,,0.05,0.000000,,2013-10-17 12:12:00,
2013-10-17 06:22:00,21.0,14.0,-100.00,North,8,0.0,4.0,74,0.00,,,0.05,0.000000,,2013-10-17 12:22:00,
2013-10-17 06:32:00,21.0,14.0,-100.00,North,8,0.0,4.0,74,0.00,,,0.05,0.000000,,2013-10-17 12:32:00,
2013-10-17 06:42:00,21.0,14.0,-100.00,North,8,0.0,4.0,74,0.00,,,0.05,0.000000,,2013-10-17 12:42:00,
2013-10-17 07:22:00,20.0,17.0,-100.00,NE,49,4.0,5.0,88,0.00,,,0.05,0.000000,,2013-10-17 13:22:00,
2013-10-17 07:32:00,20.0,17.0,-100.00,NE,49,4.0,5.0,88,0.00,,,0.05,0.000000,,2013-10-17 13:32:00,
2013-10-17 07:42:00,20.0,17.0,-100.00,NE,49,4.0,5.0,88,0.00,,,0.05,0.000000,,2013-10-17 13:42:00,
2013-10-17 08:11:00,21.0,17.0,-100.00,North,4,0.0,5.0,86,0.00,,,0.05,11.000000,,2013-10-17 14:11:00,
2013-10-17 08:21:00,21.0,17.0,-100.00,North,4,0.0,5.0,86,0.00,,,0.05,11.000000,,2013-10-17 14:21:00,
2013-10-17 08:32:00,21.0,17.0,-100.00,North,4,0.0,5.0,86,0.00,,,0.05,11.000000,,2013-10-17 14:32:00,
2013-10-17 08:42:00,21.0,17.0,-100.00,North,4,0.0,5.0,86,0.00,,,0.05,11.000000,,2013-10-17 14:42:00,
2013-10-17 12:11:00,39.0,19.0,-100.00,WNW,284,7.0,13.0,44,-99.99,,,0.02,794.000000,,2013-10-17 18:11:00,
2013-10-17 12:21:00,39.0,19.0,-100.00,WNW,284,7.0,13.0,44,-99.99,,,0.02,794.000000,,2013-10-17 18:21:00,
2013-10-17 12:32:00,39.0,19.0,-100.00,WNW,284,7.0,13.0,44,-99.99,,,0.02,794.000000,,2013-10-17 18:32:00,
2013-10-17 12:42:00,39.0,19.0,-100.00,WNW,284,7.0,13.0,44,-99.99,,,0.02,794.000000,,2013-10-17 18:42:00,
2013-10-17 13:11:00,40.0,19.0,-100.00,West,268,5.0,11.0,43,0.00,,,0.00,877.000000,,2013-10-17 19:11:00,
2013-10-17 13:21:00,40.0,19.0,-100.00,West,268,5.0,11.0,43,0.00,,,0.00,877.000000,,2013-10-17 19:21:00,
2013-10-17 13:31:00,40.0,19.0,-100.00,West,268,5.0,11.0,43,0.00,,,0.00,877.000000,,2013-10-17 19:31:00,
2013-10-17 13:42:00,40.0,19.0,-100.00,West,268,5.0,11.0,43,0.00,,,0.00,877.000000,,2013-10-17 19:42:00,
2013-10-17 14:22:00,45.0,17.0,-100.00,NW,322,5.0,13.0,32,0.00,,,0.00,887.000000,,2013-10-17 20:22:00,
2013-10-17 14:32:00,45.0,17.0,-100.00,NW,322,5.0,13.0,32,0.00,,,0.00,887.000000,,2013-10-17 20:32:00,
2013-10-17 14:42:00,45.0,17.0,-100.00,NW,322,5.0,13.0,32,0.00,,,0.00,887.000000,,2013-10-17 20:42:00,
2013-10-17 15:11:00,47.0,16.0,-100.00,WNW,290,9.0,22.0,28,0.00,,,0.00,822.000000,,2013-10-17 21:11:00,
2013-10-17 15:21:00,47.0,16.0,-100.00,WNW,290,9.0,22.0,28,0.00,,,0.00,822.000000,,2013-10-17 21:21:00,
2013-10-17 15:34:00,47.0,16.0,-100.00,WNW,290,9.0,22.0,28,0.00,,,0.00,822.000000,,2013-10-17 21:34:00,
2013-10-17 15:44:00,47.0,16.0,-100.00,WNW,290,9.0,22.0,28,0.00,,,0.00,822.000000,,2013-10-17 21:44:00,
2013-10-17 16:14:00,45.0,13.0,-100.00,NW,317,9.0,20.0,27,0.00,,,0.00,681.000000,,2013-10-17 22:14:00,
2013-10-17 16:24:00,45.0,13.0,-100.00,NW,317,9.0,20.0,27,0.00,,,0.00,681.000000,,2013-10-17 22:24:00,
2013-10-17 16:33:00,45.0,13.0,-100.00,NW,317,9.0,20.0,27,0.00,,,0.00,681.000000,,2013-10-17 22:33:00,
2013-10-17 16:43:00,45.0,13.0,-100.00,NW,317,9.0,20.0,27,0.00,,,0.00,681.000000,,2013-10-17 22:43:00,
2013-10-17 17:13:00,44.0,10.0,-100.00,WNW,290,7.0,22.0,25,0.00,,,0.00,485.000000,,2013-10-17 23:13:00,
2013-10-17 17:22:00,44.0,10.0,-100.00,WNW,290,7.0,22.0,25,0.00,,,0.00,485.000000,,2013-10-17 23:22:00,
2013-10-17 17:33:00,44.0,10.0,-100.00,WNW,290,7.0,22.0,25,0.00,,,0.00,485.000000,,2013-10-17 23:33:00,
2013-10-17 17:43:00,44.0,10.0,-100.00,WNW,290,7.0,22.0,25,0.00,,,0.00,485.000000,,2013-10-17 23:43:00,
2013-10-17 18:12:00,42.0,14.0,-100.00,NW,321,6.0,18.0,31,0.00,,,0.00,246.000000,,2013-10-18 00:12:00,
2013-10-17 18:22:00,42.0,14.0,-100.00,NW,321,6.0,18.0,31,0.00,,,0.00,246.000000,,2013-10-18 00:22:00,
2013-10-17 18:32:00,42.0,14.0,-100.00,NW,321,6.0,18.0,31,0.00,,,0.00,246.000000,,2013-10-18 00:32:00,
2013-10-17 18:42:00,42.0,14.0,-100.00,NW,321,6.0,18.0,31,0.00,,,0.00,246.000000,,2013-10-18 00:42:00,
2013-10-17 19:12:00,35.0,14.0,-100.00,NW,312,4.0,15.0,42,0.00,,,0.00,10.000000,,2013-10-18 01:12:00,
2013-10-17 19:21:00,35.0,14.0,-100.00,NW,312,4.0,15.0,42,0.00,,,0.00,10.000000,,2013-10-18 01:21:00,
2013-10-17 19:32:00,35.0,14.0,-100.00,NW,312,4.0,15.0,42,0.00,,,0.00,10.000000,,2013-10-18 01:32:00,
2013-10-17 19:42:00,35.0,14.0,-100.00,NW,312,4.0,15.0,42,0.00,,,0.00,10.000000,,2013-10-18 01:42:00,
2013-10-17 20:11:00,33.0,16.0,-100.00,NW,314,4.0,9.0,50,0.00,,,0.00,0.000000,,2013-10-18 02:11:00,
2013-10-17 20:22:00,33.0,16.0,-100.00,NW,314,4.0,9.0,50,0.00,,,0.00,0.000000,,2013-10-18 02:22:00,
2013-10-17 20:32:00,33.0,16.0,-100.00,NW,314,4.0,9.0,50,0.00,,,0.00,0.000000,,2013-10-18 02:32:00,
2013-10-17 20:42:00,33.0,16.0,-100.00,NW,314,4.0,9.0,50,0.00,,,0.00,0.000000,,2013-10-18 02:42:00,
2013-10-17 21:11:00,32.0,17.0,-100.00,NW,309,4.0,8.0,53,0.00,,,0.00,0.000000,,2013-10-18 03:11:00,
2013-10-17 21:22:00,32.0,17.0,-100.00,NW,309,4.0,8.0,53,0.00,,,0.00,0.000000,,2013-10-18 03:22:00,
2013-10-17 21:35:00,32.0,17.0,-100.00,NW,309,4.0,8.0,53,0.00,,,0.00,0.000000,,2013-10-18 03:35:00,
2013-10-17 21:44:00,32.0,17.0,-100.00,NW,309,4.0,8.0,53,0.00,,,0.00,0.000000,,2013-10-18 03:44:00,
2013-10-17 22:14:00,30.0,16.0,-100.00,West,280,3.0,7.0,56,0.00,,,-99.99,0.000000,,2013-10-18 04:14:00,
2013-10-17 22:24:00,30.0,16.0,-100.00,West,280,3.0,7.0,56,0.00,,,-99.99,0.000000,,2013-10-18 04:24:00,
2013-10-17 22:34:00,30.0,16.0,-100.00,West,280,3.0,7.0,56,0.00,,,-99.99,0.000000,,2013-10-18 04:34:00,
2013-10-17 22:43:00,30.0,16.0,-100.00,West,280,3.0,7.0,56,0.00,,,-99.99,0.000000,,2013-10-18 04:43:00,
2013-10-17 23:12:00,30.0,16.0,-100.00,WSW,250,0.0,6.0,56,0.00,,,0.00,0.000000,,2013-10-18 05:12:00,
2013-10-17 23:22:00,30.0,16.0,-100.00,WSW,250,0.0,6.0,56,0.00,,,0.00,0.000000,,2013-10-18 05:22:00,
2013-10-17 23:34:00,30.0,16.0,-100.00,WSW,250,0.0,6.0,56,0.00,,,0.00,0.000000,,2013-10-18 05:34:00,
2013-10-17 23:43:00,30.0,16.0,-100.00,WSW,250,0.0,6.0,56,0.00,,,0.00,0.000000,,2013-10-18 05:43:00,